Time,TemperatureF,DewpointF,PressureIn,WindDirection,WindDirectionDegrees,WindSpeedMPH,WindSpeedGustMPH,Humidity,HourlyPrecipIn,Conditions,Clouds,dailyrainin,SoftwareType,DateUTC
2013-06-01 00:03:00,74.0,69.0,30.14,South,169,5.0,7.0,85,0.00,,,0.00,,2013-06-01 04:03:00,
2013-06-01 00:12:00,74.0,69.0,30.14,South,169,5.0,7.0,85,0.00,,,0.00,,2013-06-01 04:12:00,
2013-06-01 00:23:00,74.0,70.0,30.14,SSE,163,4.0,8.0,86,0.00,,,0.00,,2013-06-01 04:23:00,
2013-06-01 00:33:00,74.0,70.0,30.14,SE,144,4.0,8.0,87,0.00,,,0.00,,2013-06-01 04:33:00,
2013-06-01 00:42:00,73.0,69.0,30.14,South,177,4.0,7.0,87,0.00,,,0.00,,2013-06-01 04:42:00,
2013-06-01 00:53:00,73.0,69.0,30.14,South,177,4.0,7.0,87,0.00,,,0.00,,2013-06-01 04:53:00,
2013-06-01 01:02:00,73.0,69.0,30.14,South,191,4.0,9.0,87,0.00,,,0.00,,2013-06-01 05:02:00,
2013-06-01 01:12:00,73.0,69.0,30.14,South,191,4.0,9.0,87,0.00,,,0.00,,2013-06-01 05:12:00,
2013-06-01 01:22:00,73.0,69.0,30.14,SSE,163,4.0,8.0,87,0.00,,,0.00,,2013-06-01 05:22:00,
2013-06-01 01:32:00,72.0,68.0,30.14,SSW,204,3.0,6.0,88,0.00,,,0.00,,2013-06-01 05:32:00,
2013-06-01 01:42:00,72.0,69.0,30.14,SSW,193,4.0,7.0,89,0.00,,,0.00,,2013-06-01 05:42:00,
2013-06-01 01:52:00,72.0,69.0,30.14,SSW,193,4.0,7.0,89,0.00,,,0.00,,2013-06-01 05:52:00,
2013-06-01 02:01:00,71.0,68.0,30.14,SSW,194,4.0,8.0,89,0.00,,,0.00,,2013-06-01 06:01:00,
2013-06-01 02:12:00,71.0,68.0,30.14,SSW,194,4.0,8.0,89,0.00,,,0.00,,2013-06-01 06:12:00,
2013-06-01 02:22:00,71.0,68.0,30.13,SSW,210,3.0,7.0,89,0.00,,,0.00,,2013-06-01 06:22:00,
2013-06-01 02:32:00,71.0,68.0,30.13,South,180,4.0,6.0,90,0.00,,,0.00,,2013-06-01 06:32:00,
2013-06-01 02:42:00,71.0,68.0,30.13,SW,224,4.0,6.0,90,0.00,,,0.00,,2013-06-01 06:42:00,
2013-06-01 02:52:00,71.0,68.0,30.13,SW,224,4.0,6.0,90,0.00,,,0.00,,2013-06-01 06:52:00,
2013-06-01 03:01:00,70.0,67.0,30.14,SSW,206,2.0,5.0,91,0.00,,,0.00,,2013-06-01 07:01:00,
2013-06-01 03:11:00,70.0,67.0,30.14,SSW,206,2.0,5.0,91,0.00,,,0.00,,2013-06-01 07:11:00,
2013-06-01 03:22:00,69.0,67.0,30.14,SSW,204,2.0,3.0,92,0.00,,,0.00,,2013-06-01 07:22:00,
2013-06-01 03:32:00,69.0,67.0,30.14,SSW,201,2.0,3.0,93,0.00,,,0.00,,2013-06-01 07:32:00,
2013-06-01 03:42:00,68.0,66.0,30.14,SSW,203,0.0,1.0,94,0.00,,,0.00,,2013-06-01 07:42:00,
2013-06-01 03:52:00,68.0,66.0,30.14,SSW,203,0.0,1.0,94,0.00,,,0.00,,2013-06-01 07:52:00,
2013-06-01 04:02:00,68.0,67.0,30.13,SSW,203,1.0,2.0,95,0.00,,,0.00,,2013-06-01 08:02:00,
2013-06-01 04:11:00,68.0,67.0,30.14,SW,224,1.0,2.0,95,0.00,,,0.00,,2013-06-01 08:11:00,
2013-06-01 04:22:00,68.0,67.0,30.14,SW,224,1.0,2.0,95,0.00,,,0.00,,2013-06-01 08:22:00,
2013-06-01 04:32:00,68.0,67.0,30.14,SW,224,1.0,2.0,95,0.00,,,0.00,,2013-06-01 08:32:00,
2013-06-01 04:42:00,68.0,67.0,30.14,South,170,1.0,2.0,96,0.00,,,0.00,,2013-06-01 08:42:00,
2013-06-01 04:52:00,68.0,67.0,30.14,South,170,1.0,2.0,96,0.00,,,0.00,,2013-06-01 08:52:00,
2013-06-01 05:01:00,67.0,66.0,30.14,SE,138,2.0,3.0,96,0.00,,,0.00,,2013-06-01 09:01:00,
2013-06-01 05:12:00,67.0,66.0,30.14,SE,138,2.0,3.0,96,0.00,,,0.00,,2013-06-01 09:12:00,
2013-06-01 05:22:00,67.0,66.0,30.14,SSE,158,1.0,2.0,96,0.00,,,0.00,,2013-06-01 09:22:00,
2013-06-01 05:33:00,67.0,66.0,30.14,South,174,2.0,3.0,97,0.00,,,0.00,,2013-06-01 09:33:00,
2013-06-01 05:42:00,67.0,66.0,30.14,South,174,2.0,3.0,97,0.00,,,0.00,,2013-06-01 09:42:00,
2013-06-01 05:53:00,67.0,66.0,30.15,SSW,208,2.0,3.0,97,0.00,,,0.00,,2013-06-01 09:53:00,
2013-06-01 06:02:00,67.0,66.0,30.15,South,188,2.0,4.0,97,0.00,,,0.00,,2013-06-01 10:02:00,
2013-06-01 06:13:00,67.0,66.0,30.15,South,188,2.0,4.0,97,0.00,,,0.00,,2013-06-01 10:13:00,
2013-06-01 06:22:00,67.0,66.0,30.15,South,191,3.0,4.0,97,0.00,,,0.00,,2013-06-01 10:22:00,
2013-06-01 06:33:00,67.0,66.0,30.15,SSW,198,2.0,4.0,97,0.00,,,0.00,,2013-06-01 10:33:00,
2013-06-01 06:42:00,67.0,66.0,30.15,SSW,198,2.0,4.0,97,0.00,,,0.00,,2013-06-01 10:42:00,
2013-06-01 06:53:00,68.0,67.0,30.16,South,190,3.0,5.0,97,0.00,,,0.00,,2013-06-01 10:53:00,
2013-06-01 07:02:00,68.0,67.0,30.16,SSW,193,4.0,6.0,98,0.00,,,0.00,,2013-06-01 11:02:00,
2013-06-01 07:11:00,68.0,67.0,30.16,SSW,193,4.0,6.0,98,0.00,,,0.00,,2013-06-01 11:11:00,
2013-06-01 07:21:00,69.0,68.0,30.16,WSW,238,5.0,6.0,97,0.00,,,0.00,,2013-06-01 11:21:00,
2013-06-01 07:32:00,69.0,68.0,30.16,SSW,201,5.0,8.0,97,0.00,,,0.00,,2013-06-01 11:32:00,
2013-06-01 07:42:00,69.0,68.0,30.16,SSW,201,5.0,8.0,97,0.00,,,0.00,,2013-06-01 11:42:00,
2013-06-01 07:52:00,70.0,69.0,30.16,SSW,200,4.0,8.0,96,0.00,,,0.00,,2013-06-01 11:52:00,
2013-06-01 08:01:00,71.0,69.0,30.16,SSW,193,7.0,9.0,94,0.00,,,0.00,,2013-06-01 12:01:00,
2013-06-01 08:12:00,71.0,69.0,30.16,SSW,193,7.0,9.0,94,0.00,,,0.00,,2013-06-01 12:12:00,
2013-06-01 08:22:00,71.0,69.0,30.16,WSW,243,5.0,8.0,93,0.00,,,0.00,,2013-06-01 12:22:00,
2013-06-01 08:32:00,73.0,70.0,30.15,SSW,200,6.0,8.0,89,0.00,,,0.00,,2013-06-01 12:32:00,
2013-06-01 08:42:00,73.0,70.0,30.15,SSW,200,6.0,8.0,89,0.00,,,0.00,,2013-06-01 12:42:00,
2013-06-01 08:52:00,74.0,70.0,30.15,SSW,210,6.0,9.0,86,0.00,,,0.00,,2013-06-01 12:52:00,
2013-06-01 09:01:00,74.0,70.0,30.15,SSW,210,6.0,9.0,86,0.00,,,0.00,,2013-06-01 13:01:00,
2013-06-01 09:12:00,74.0,70.0,30.15,SSW,210,6.0,9.0,86,0.00,,,0.00,,2013-06-01 13:12:00,
2013-06-01 09:22:00,76.0,70.0,30.16,SSW,201,6.0,8.0,81,0.00,,,0.00,,2013-06-01 13:22:00,
2013-06-01 09:32:00,77.0,70.0,30.15,WSW,245,6.0,11.0,79,0.00,,,0.00,,2013-06-01 13:32:00,
2013-06-01 09:42:00,78.0,70.0,30.15,SSW,197,4.0,11.0,76,0.00,,,0.00,,2013-06-01 13:42:00,
2013-06-01 09:52:00,78.0,70.0,30.15,SSW,197,4.0,11.0,76,0.00,,,0.00,,2013-06-01 13:52:00,
2013-06-01 10:02:00,79.0,70.0,30.14,SW,217,5.0,8.0,73,0.00,,,0.00,,2013-06-01 14:02:00,
2013-06-01 10:11:00,79.0,70.0,30.14,SW,217,5.0,8.0,73,0.00,,,0.00,,2013-06-01 14:11:00,
2013-06-01 10:21:00,79.0,68.0,30.14,SSW,211,9.0,11.0,70,0.00,,,0.00,,2013-06-01 14:21:00,
2013-06-01 10:32:00,79.0,69.0,30.14,SSW,205,5.0,11.0,72,0.00,,,0.00,,2013-06-01 14:32:00,
2013-06-01 10:42:00,79.0,69.0,30.14,SSW,205,5.0,11.0,72,0.00,,,0.00,,2013-06-01 14:42:00,
2013-06-01 10:52:00,80.0,70.0,30.14,SSW,201,4.0,10.0,71,0.00,,,0.00,,2013-06-01 14:52:00,
2013-06-01 11:02:00,82.0,70.0,30.13,West,263,3.0,12.0,68,0.00,,,0.00,,2013-06-01 15:02:00,
2013-06-01 11:11:00,82.0,70.0,30.13,West,263,3.0,12.0,68,0.00,,,0.00,,2013-06-01 15:11:00,
2013-06-01 11:21:00,82.0,69.0,30.13,SSW,199,7.0,14.0,65,0.00,,,0.00,,2013-06-01 15:21:00,
2013-06-01 11:33:00,82.0,69.0,30.12,SSE,154,6.0,12.0,65,0.00,,,0.00,,2013-06-01 15:33:00,
2013-06-01 11:43:00,82.0,69.0,30.12,SSE,154,6.0,12.0,65,0.00,,,0.00,,2013-06-01 15:43:00,
2013-06-01 11:54:00,83.0,69.0,30.13,SSW,211,6.0,13.0,63,0.00,,,0.00,,2013-06-01 15:54:00,
2013-06-01 12:03:00,84.0,70.0,30.13,SW,221,9.0,15.0,62,0.00,,,0.00,,2013-06-01 16:03:00,
2013-06-01 12:12:00,84.0,70.0,30.13,SW,221,9.0,15.0,62,0.00,,,0.00,,2013-06-01 16:12:00,
2013-06-01 12:23:00,84.0,70.0,30.13,SW,221,9.0,15.0,62,0.00,,,0.00,,2013-06-01 16:23:00,
2013-06-01 12:33:00,85.0,70.0,30.12,SW,228,5.0,13.0,60,0.00,,,0.00,,2013-06-01 16:33:00,
2013-06-01 12:42:00,85.0,70.0,30.12,SW,228,5.0,13.0,60,0.00,,,0.00,,2013-06-01 16:42:00,
2013-06-01 12:53:00,85.0,69.0,30.12,SW,229,7.0,13.0,59,0.00,,,0.00,,2013-06-01 16:53:00,
2013-06-01 13:02:00,86.0,69.0,30.12,SSW,210,7.0,12.0,58,0.00,,,0.00,,2013-06-01 17:02:00,
2013-06-01 13:12:00,86.0,69.0,30.12,SSW,210,7.0,12.0,58,0.00,,,0.00,,2013-06-01 17:12:00,
2013-06-01 13:22:00,85.0,69.0,30.12,WNW,283,5.0,11.0,58,0.00,,,0.00,,2013-06-01 17:22:00,
2013-06-01 13:32:00,87.0,69.0,30.12,WNW,302,8.0,15.0,55,0.00,,,0.00,,2013-06-01 17:32:00,
2013-06-01 13:42:00,87.0,69.0,30.12,WNW,302,8.0,15.0,55,0.00,,,0.00,,2013-06-01 17:42:00,
2013-06-01 13:52:00,87.0,68.0,30.11,SW,217,8.0,12.0,54,0.00,,,0.00,,2013-06-01 17:52:00,
2013-06-01 14:01:00,86.0,68.0,30.11,SSW,212,3.0,10.0,55,0.00,,,0.00,,2013-06-01 18:01:00,
2013-06-01 14:12:00,86.0,68.0,30.11,SSW,212,3.0,10.0,55,0.00,,,0.00,,2013-06-01 18:12:00,
2013-06-01 14:22:00,88.0,68.0,30.10,SSW,197,5.0,13.0,51,0.00,,,0.00,,2013-06-01 18:22:00,
2013-06-01 14:32:00,87.0,68.0,30.10,SSE,154,5.0,9.0,54,0.00,,,0.00,,2013-06-01 18:32:00,
2013-06-01 14:42:00,87.0,68.0,30.10,SSE,154,5.0,9.0,54,0.00,,,0.00,,2013-06-01 18:42:00,
2013-06-01 14:52:00,87.0,67.0,30.09,SSW,195,9.0,13.0,52,0.00,,,0.00,,2013-06-01 18:52:00,
2013-06-01 15:02:00,87.0,67.0,30.09,SW,228,6.0,14.0,51,0.00,,,0.00,,2013-06-01 19:02:00,
2013-06-01 15:11:00,87.0,67.0,30.09,SW,228,6.0,14.0,51,0.00,,,0.00,,2013-06-01 19:11:00,
2013-06-01 15:21:00,88.0,68.0,30.08,SSW,194,6.0,11.0,51,0.00,,,0.00,,2013-06-01 19:21:00,
2013-06-01 15:32:00,88.0,67.0,30.07,WSW,256,5.0,15.0,50,0.00,,,0.00,,2013-06-01 19:32:00,
2013-06-01 15:42:00,88.0,67.0,30.07,WSW,256,5.0,15.0,50,0.00,,,0.00,,2013-06-01 19:42:00,
2013-06-01 15:52:00,88.0,66.0,30.07,SW,229,10.0,14.0,49,0.00,,,0.00,,2013-06-01 19:52:00,
2013-06-01 16:02:00,89.0,67.0,30.06,WSW,252,6.0,20.0,49,0.00,,,0.00,,2013-06-01 20:02:00,
2013-06-01 16:12:00,89.0,67.0,30.06,WSW,252,6.0,20.0,49,0.00,,,0.00,,2013-06-01 20:12:00,
2013-06-01 16:21:00,88.0,67.0,30.06,SSW,193,9.0,15.0,50,0.00,,,0.00,,2013-06-01 20:21:00,
2013-06-01 16:32:00,88.0,66.0,30.06,SSW,207,9.0,13.0,49,0.00,,,0.00,,2013-06-01 20:32:00,
2013-06-01 16:42:00,88.0,66.0,30.06,SSW,207,9.0,13.0,49,0.00,,,0.00,,2013-06-01 20:42:00,
2013-06-01 16:52:00,89.0,67.0,30.06,SW,221,6.0,12.0,48,0.00,,,0.00,,2013-06-01 20:52:00,
2013-06-01 17:01:00,88.0,65.0,30.06,SSW,211,8.0,15.0,47,0.00,,,0.00,,2013-06-01 21:01:00,
2013-06-01 17:11:00,89.0,65.0,30.06,SSE,159,6.0,11.0,46,0.00,,,0.00,,2013-06-01 21:11:00,
2013-06-01 17:22:00,89.0,65.0,30.06,SSE,159,6.0,11.0,46,0.00,,,0.00,,2013-06-01 21:22:00,
2013-06-01 17:33:00,89.0,66.0,30.05,SW,214,5.0,8.0,47,0.00,,,0.00,,2013-06-01 21:33:00,
2013-06-01 17:43:00,89.0,66.0,30.05,SW,214,5.0,8.0,47,0.00,,,0.00,,2013-06-01 21:43:00,
2013-06-01 17:53:00,89.0,67.0,30.05,WSW,238,5.0,11.0,49,0.00,,,0.00,,2013-06-01 21:53:00,
2013-06-01 18:03:00,88.0,65.0,30.05,South,179,7.0,14.0,47,0.00,,,0.00,,2013-06-01 22:03:00,
2013-06-01 18:12:00,88.0,65.0,30.05,SSW,205,6.0,13.0,46,0.00,,,0.00,,2013-06-01 22:12:00,
2013-06-01 18:23:00,88.0,65.0,30.05,SSW,205,6.0,13.0,46,0.00,,,0.00,,2013-06-01 22:23:00,
2013-06-01 18:33:00,88.0,65.0,30.04,SW,221,6.0,13.0,46,0.00,,,0.00,,2013-06-01 22:33:00,
2013-06-01 18:42:00,88.0,65.0,30.04,SW,221,6.0,13.0,46,0.00,,,0.00,,2013-06-01 22:42:00,
2013-06-01 18:53:00,88.0,66.0,30.04,SSE,162,8.0,12.0,48,0.00,,,0.00,,2013-06-01 22:53:00,
2013-06-01 19:02:00,87.0,66.0,30.04,South,178,6.0,11.0,50,0.00,,,0.00,,2013-06-01 23:02:00,
2013-06-01 19:12:00,87.0,67.0,30.04,South,190,6.0,11.0,51,0.00,,,0.00,,2013-06-01 23:12:00,
2013-06-01 19:22:00,87.0,67.0,30.04,South,190,6.0,11.0,51,0.00,,,0.00,,2013-06-01 23:22:00,
2013-06-01 19:32:00,86.0,66.0,30.04,South,178,4.0,9.0,52,0.00,,,0.00,,2013-06-01 23:32:00,
2013-06-01 19:42:00,86.0,66.0,30.04,South,178,4.0,9.0,52,0.00,,,0.00,,2013-06-01 23:42:00,
2013-06-01 19:52:00,86.0,66.0,30.04,SSW,200,4.0,8.0,52,0.00,,,0.00,,2013-06-01 23:52:00,
2013-06-01 20:02:00,84.0,66.0,30.04,SSE,164,2.0,3.0,55,0.00,,,0.00,,2013-06-02 00:02:00,
2013-06-01 20:11:00,84.0,66.0,30.04,SSE,164,2.0,3.0,55,0.00,,,0.00,,2013-06-02 00:11:00,
2013-06-01 20:22:00,83.0,67.0,30.04,SSW,200,3.0,5.0,58,0.00,,,0.00,,2013-06-02 00:22:00,
2013-06-01 20:32:00,81.0,66.0,30.04,SSW,199,1.0,3.0,61,0.00,,,0.00,,2013-06-02 00:32:00,
2013-06-01 20:42:00,81.0,66.0,30.04,SSW,199,1.0,3.0,61,0.00,,,0.00,,2013-06-02 00:42:00,
2013-06-01 20:52:00,80.0,67.0,30.04,SSE,147,1.0,2.0,64,0.00,,,0.00,,2013-06-02 00:52:00,
2013-06-01 21:01:00,78.0,66.0,30.04,SSE,147,2.0,3.0,67,0.00,,,0.00,,2013-06-02 01:01:00,
2013-06-01 21:11:00,78.0,66.0,30.04,SSE,147,2.0,3.0,67,0.00,,,0.00,,2013-06-02 01:11:00,
2013-06-01 21:21:00,78.0,67.0,30.04,SSE,159,3.0,4.0,68,0.00,,,0.00,,2013-06-02 01:21:00,
2013-06-01 21:32:00,78.0,67.0,30.04,SSE,152,4.0,7.0,70,0.00,,,0.00,,2013-06-02 01:32:00,
2013-06-01 21:42:00,78.0,67.0,30.04,SSE,152,4.0,7.0,70,0.00,,,0.00,,2013-06-02 01:42:00,
2013-06-01 21:52:00,78.0,68.0,30.05,South,181,5.0,8.0,71,0.00,,,0.00,,2013-06-02 01:52:00,
2013-06-01 22:01:00,78.0,68.0,30.05,South,176,5.0,8.0,72,0.00,,,0.00,,2013-06-02 02:01:00,
2013-06-01 22:12:00,78.0,68.0,30.05,South,176,5.0,8.0,72,0.00,,,0.00,,2013-06-02 02:12:00,
2013-06-01 22:21:00,77.0,68.0,30.06,SSE,149,4.0,8.0,73,0.00,,,0.00,,2013-06-02 02:21:00,
2013-06-01 22:32:00,77.0,68.0,30.06,South,172,6.0,10.0,74,0.00,,,0.00,,2013-06-02 02:32:00,
2013-06-01 22:42:00,77.0,68.0,30.06,South,172,6.0,10.0,74,0.00,,,0.00,,2013-06-02 02:42:00,
2013-06-01 22:52:00,76.0,67.0,30.06,SSE,167,5.0,9.0,75,0.00,,,0.00,,2013-06-02 02:52:00,
2013-06-01 23:02:00,76.0,68.0,30.07,South,174,5.0,9.0,76,0.00,,,0.00,,2013-06-02 03:02:00,
2013-06-01 23:11:00,76.0,68.0,30.07,South,174,5.0,9.0,76,0.00,,,0.00,,2013-06-02 03:11:00,
2013-06-01 23:21:00,76.0,68.0,30.07,South,174,7.0,13.0,76,0.00,,,0.00,,2013-06-02 03:21:00,
2013-06-01 23:33:00,75.0,67.0,30.07,South,173,5.0,11.0,77,0.00,,,0.00,,2013-06-02 03:33:00,
2013-06-01 23:43:00,75.0,67.0,30.07,South,173,5.0,11.0,77,0.00,,,0.00,,2013-06-02 03:43:00,
2013-06-01 23:53:00,75.0,68.0,30.08,SSW,193,5.0,11.0,78,0.00,,,0.00,,2013-06-02 03:53:00,